Flag for Germany Weather past 2 weeks in Weyhe, Lower Saxony, Germany

Now
63 °F

Light rain. Partly sunny.


Feels Like: 63 °F
Forecast: 54 / 64 °F
Wind: 16 mph from Northwest

Location: Bremen Airport

Current Time: Sep 1, 2015 at 12:33:25 PM

Latest Report: Sep 1, 2015 at 12:20 PM


Visibility: N/A

Pressure: 29.80 "Hg

Humidity: 83%

Dew point: 57 °F

Location of WeyheLocation

Historic Weather in Weyhe — Graph

°F

Weyhe temperature yesterday

Maximum temperature yesterday: 84 °F (at 5:20 PM)
Minimum temperature yesterday: 64 °F (at 2:20 AM)
Average temperature yesterday: 73 °F

Past Weeks' High & Low Weather Summary

 TemperatureHumidityPressure
High84 °F (Aug 31, 5:20 PM)100% (Aug 17, 3:20 PM)30.27 "Hg (Aug 17, 3:20 PM)
Low50 °F (Aug 29, 3:20 AM)30% (Aug 22, 1:50 PM)29.56 "Hg (Aug 24, 5:50 PM)
Average65 °F77%29.97 "Hg
* Reported Aug 17 11:20 AM — Sep 1 11:20 AM, Weyhe, Weather by CustomWeather, © 2015

Note: Actual official high and low records may vary slightly from our data, if they occured in-between our weather recording intervals... More about our weather records

Advertising

Weyhe weather history for previous 24 hours

 ConditionsComfort  
Time TempWeatherWind HumidityBarometerVisibility
11:20 AM
Tue, Sep 1
64 °FLight rain. Partly sunny.14 mph78%29.80 "HgN/A
10:50 AM64 °FLight rain. Partly sunny.13 mph83%29.80 "HgN/A
10:20 AM64 °FBroken clouds.14 mph83%29.80 "HgN/A
9:50 AM64 °FPartly sunny.13 mph83%29.77 "HgN/A
9:20 AM63 °FDrizzle. Partly sunny.17 mph88%29.77 "HgN/A
8:50 AM63 °FDrizzle. Partly sunny.15 mph94%29.77 "HgN/A
8:20 AM64 °FDrizzle. Partly sunny.14 mph88%29.77 "HgN/A
7:50 AM64 °FPartly sunny.16 mph88%29.74 "HgN/A
7:20 AM66 °FPassing clouds.10 mph88%29.74 "HgN/A
6:50 AM66 °FPartly cloudy.10 mph88%29.74 "HgN/A
5:20 AM68 °FPassing clouds.9 mph88%29.74 "HgN/A
4:50 AM68 °FPassing clouds.10 mph88%29.74 "HgN/A
4:20 AM68 °FPassing clouds.8 mph88%29.74 "HgN/A
3:50 AM68 °FPassing clouds.10 mph88%29.74 "HgN/A
3:20 AM68 °FPassing clouds.9 mph94%29.74 "HgN/A
2:50 AM70 °FPassing clouds.7 mph83%29.74 "HgN/A
2:20 AM68 °FPassing clouds.6 mph88%29.74 "HgN/A
1:50 AM68 °FPassing clouds.7 mph88%29.74 "HgN/A
1:20 AM70 °FPassing clouds.7 mph88%29.74 "HgN/A
12:50 AM70 °FPassing clouds.6 mph88%29.74 "HgN/A
12:20 AM70 °FClear.5 mph88%29.74 "Hg10 mi
11:20 PM
Mon, Aug 31
72 °FClear.6 mph83%29.74 "Hg10 mi
10:50 PM72 °FClear.7 mph88%29.74 "Hg10 mi
10:20 PM75 °FClear.10 mph78%29.74 "Hg10 mi
9:50 PM77 °FClear.17 mph69%29.71 "Hg10 mi
9:20 PM79 °FPassing clouds.16 mph65%29.71 "HgN/A
8:50 PM77 °FPartly sunny.7 mph79%29.68 "HgN/A
8:20 PM77 °FSunny.7 mph79%29.68 "Hg10 mi
7:50 PM79 °FSunny.6 mph79%29.68 "Hg10 mi
7:20 PM81 °FSunny.6 mph74%29.68 "Hg10 mi
6:50 PM82 °FSunny.7 mph70%29.71 "Hg10 mi
6:20 PM82 °FSunny.8 mph66%29.71 "Hg10 mi
5:50 PM84 °FSunny.9 mph58%29.71 "Hg10 mi
5:20 PM84 °FPassing clouds.10 mph62%29.74 "HgN/A
4:50 PM82 °FPassing clouds.12 mph62%29.74 "HgN/A
4:20 PM82 °FSunny.10 mph62%29.77 "Hg10 mi
3:50 PM82 °FSunny.13 mph58%29.77 "Hg10 mi
3:20 PM81 °FPassing clouds.10 mph66%29.80 "HgN/A
2:50 PM81 °FPassing clouds.12 mph66%29.80 "HgN/A
2:20 PM79 °FPassing clouds.13 mph61%29.83 "HgN/A
1:50 PM79 °FPartly sunny.13 mph65%29.83 "HgN/A
1:20 PM79 °FPartly sunny.13 mph61%29.86 "HgN/A
12:50 PM77 °FPartly sunny.10 mph65%29.89 "HgN/A
12:20 PM75 °FBroken clouds.9 mph74%29.89 "HgN/A
Weather by CustomWeather, © 2015

See weather overviewHow to use our weather pages